FENGYUN 1C DEB

Satellite information

Favourite Embed

Satellite Type and Status

DEBRISIN ORBIT

Key statistics

Satellite FENGYUN 1C DEB at a glance.

Uptime

9555

Days in orbit

Revolutions

≈ 14.2

Per day

Orbit

SSO

Sun Synchronous Orbit

Inclination

98.8

Latest

Satellite identification and parameters

Extended collection of information and parameters for FENGYUN 1C DEB.

Object identification

Identified? True

Debris? True

Object name: FENGYUN 1C DEB

International designator: 1999-025EYR

Object number (NORAD): 45526

Object ID (CCSDS): 45526

Country: PEOPLES REPUBLIC OF CHINA (PRC)

Current information (Y/N): Y

RCS size: SMALL

Orbital parameters

Period: 101.091 minutes

Inclination: 98.7721 deg

SMA: 7188.429 km

Apoapsis: 847.932 km

Periapsis: 772.656 km

RAAN: 260.061 deg

Eccentricy: 0.0052359

Argument of periapsis: 325.6083 deg

Mean anomaly: 34.171 deg

Mean motion: 14.24464879 rev/day

Mean motion (dot): 0.00002331 rev/day2

B* drag term: 0.0010111 1/REarth

Two-line elements (TLE)

Creation date: July 6, 2025, 10:46 p.m.

Reference frame: TEME

Reference center: EARTH

Epoch: July 6, 2025, 6:13 p.m. UTC

TLE line 0: 0 FENGYUN 1C DEB

TLE line 1: 1 45526U 99025EYR 25187.75916693 .00002331 00000-0 10111-2 0 9991

TLE line 2: 2 45526 98.7721 260.0610 0052359 325.6083 34.1710 14.24464879411128

Live tracking on map

Real-time ground track for satellite FENGYUN 1C DEB.

In-orbit conjunctions

A list of the most updated potential collisions computed for object FENGYUN 1C DEB.

Target Orbit TCA Probability of collision Miss distance Type
CZ-6A DEB LEO 2025-03-02 19:53:40 0.0001282664 202.0 (m) DEBRIS
CZ-6A DEB LEO 2025-02-11 14:15:27 0.0009194324 98.0 (m) DEBRIS
CZ-6A DEB LEO 2025-01-18 08:46:11 0.0001469805 633.0 (m) DEBRIS
CZ-6A DEB SSO 2024-11-11 04:27:45 0.0001074872 581.0 (m) DEBRIS
COSMOS 2251 LEO 2024-10-14 16:02:09 0.0006834128 236.0 (m) PAYLOAD

Associated space launch

Chinese polar orbiting meteorological satellite

FENGYUN 1C DEB was lifted into orbit during the mission ‘Long March 4B | Feng Yun 1C’, on board a Long March 4B space rocket.

The launch took place on May 10, 1999, 1:33 a.m. from Launch Complex 7.

For more information about the launch, click the button.

Launch to space Long March 4B | Feng Yun 1C
Long March 4B | Feng Yun 1C

Agency: N/A

Status: Launch Successful

Launch date: May 10, 1999, 1:33 a.m. UTC

Rocket: Long March 4B

Launch pad: Launch Complex 7

Location: Taiyuan Satellite Launch Center, People's Republic of China

...

Latest news about this satellite

There are no fresh news available about this satellite. Check back as we update our databases every day.


Newsletter sign-up

Weekly statistics, charts and insights to help you stay on top of the space industry.